Lid_Strength_Index
0 -0 -0 -0 0 -0 -0 -1 -1 -1 -1 -1 -1 -1 -1 -1 -1 -1 -1 -1 -2 -2 -2 -1 -1 -1 -1 -1 0 -0 1 1
0 0 0 0 0 0 0 -0 -0 -0 -1 -0 -0 -1 -1 -1 -1 -1 -1 -1 -1 -1 -1 -1 -1 -1 -0 0 1 0 1 1
0 0 0 0 0 -0 -0 -0 -0 -0 -0 -0 0 0 0 -0 -0 -1 -1 -1 -1 -1 -1 -1 -1 0 0 1 1 1 1 0
1 0 0 0 -0 1 1 0 0 0 0 0 1 1 1 -0 -0 -1 -1 -1 -1 -1 -1 -1 0 1 1 1 1 1 1 -0
1 1 0 0 0 0 0 1 1 1 1 1 1 0 1 0 1 0 0 -1 0 -0 -0 1 1 1 2 1 1 -0 -0 1
1 1 1 1 0 0 0 0 0 0 0 1 1 1 1 1 1 2 2 1 1 1 1 1 2 2 1 1 1 1 1 2
1 1 1 1 1 0 1 0 0 0 0 0 0 1 1 2 2 2 2 2 1 2 2 2 2 2 1 1 4 5 5 4
1 1 1 1 1 1 1 0 0 -0 -0 -0 -0 0 1 1 2 2 2 2 2 2 2 1 2 2 6 6 7 7 5 5
2 1 1 1 1 1 1 0 -0 0 -0 -0 -0 0 1 1 2 3 2 2 2 2 1 4 7 7 8 8 8 6 6 5
3 2 1 1 1 1 1 0 -0 0 -0 -0 -0 -0 0 1 0 2 2 2 2 2 3 7 7 8 9 9 7 7 6 6
2 2 2 1 2 2 2 1 0 0 -0 0 -0 -0 -0 0 0 1 2 1 1 2 6 7 8 9 10 10 8 8 7 7
2 2 2 2 2 2 2 1 0 0 0 0 -0 -0 -0 -0 0 1 2 2 3 5 7 9 9 9 11 10 9 9 8 8
2 2 2 2 3 3 2 2 1 1 0 0 0 -0 0 0 1 2 2 3 4 6 9 10 11 11 11 10 9 9 9 9
2 2 2 2 2 2 2 1 1 1 0 0 -0 0 1 0 1 3 3 4 7 8 10 11 11 11 11 12 12 11 10 9
2 2 2 1 1 1 2 2 2 1 1 1 1 1 1 1 1 3 4 4 6 8 10 10 12 11 11 11 13 13 12 10
2 2 2 1 1 2 2 3 3 2 2 1 1 1 2 1 2 3 4 5 6 8 9 10 11 11 10 9 11 11 13 13
2 2 2 1 1 1 2 2 2 2 1 1 1 1 2 2 3 4 4 5 6 8 11 11 11 11 10 10 10 11 11 12
4 2 2 1 1 1 2 2 2 2 2 2 2 2 2 3 4 4 5 7 7 8 10 11 11 11 10 10 10 11 11 11
4 3 3 2 2 2 2 2 2 2 2 2 2 2 3 4 5 5 6 6 7 8 9 9 10 10 10 10 10 10 10 10
4 3 3 2 2 2 2 2 2 2 2 2 2 3 3 4 6 6 7 8 8 8 8 9 10 9 9 10 10 10 9 10